Pittsfield, IL

5:32 AM CDT on August 25, 2016 (GMT -0500)
Pittsfield Penstone Municipal

Weather History for KPPQ - January, 2013

Change the Weather History Date:

Friday, January 25, 2013

  Actual Average (KUIN) Record (KUIN)
Temperature  
Mean Temperature 33 °F 27 °F  
Max Temperature 41 °F 35 °F 71 °F (1950)
Min Temperature 25 °F 19 °F -14 °F (1940)
Degree Days  
Heating Degree Days 32 38  
Month to date heating degree days 970  
Since 1 July heating degree days 3161  
Cooling Degree Days 0 0  
Month to date cooling degree days 0  
Year to date cooling degree days 0  
Moisture  
Dew Point 17 °F    
Average Humidity 54    
Maximum Humidity 71    
Minimum Humidity 39    
Precipitation  
Precipitation 0.00 in 0.05 in 0.43 in (1949)
Month to date precipitation 1.24  
Year to date precipitation 1.24  
Sea Level Pressure  
Sea Level Pressure 30.15 in    
Wind  
Wind Speed 7 mph (WSW)    
Max Wind Speed 15 mph    
Max Gust Speed 20 mph    
Visibility 10 miles    
Events      
T = Trace of Precipitation, MM = Missing Value Source: NWS Daily Summary

Daily Weather History Graph

Daily Weather History Graph

Search for Another Location

Airport or City:

Trip Planner

Search our weather history database for the weather conditions in past years. The results will help you decide how hot, cold, wet, or windy it might be!

Date:

Astronomy

Jan. 25, 2013 Rise Set
Actual Time 7:16 AM CST 5:15 PM CST
Civil Twilight 6:47 AM CST 5:44 PM CST
Nautical Twilight 6:14 AM CST 6:16 PM CST
Astronomical Twilight 5:43 AM CST 6:48 PM CST
Moon 4:12 PM CST 5:56 AM CST
Length of Visible Light 10h 56m
Length of Day
9h 58m
Waxing Gibbous, 98% of the Moon is Illuminated
Jan 25
Waxing Gibbous
Jan 26
Full
Feb 3
Last Quarter
Feb 10
New
Feb 17
First Quarter

Hourly Weather History & Observations

Time (CST) Temp. Windchill Dew Point Humidity Pressure Visibility Wind Dir Wind Speed Gust Speed Precip Events Conditions
12:15 AM 25.7 °F 15.7 °F 10.6 °F 53% 30.24 in 10.0 mi ESE 10.4 mph - N/A   Overcast
12:35 AM 25.7 °F 15.1 °F 10.8 °F 53% 30.21 in 10.0 mi SE 11.5 mph - N/A   Overcast
12:55 AM 26.1 °F 17.6 °F 10.6 °F 52% 30.23 in 10.0 mi SE 8.1 mph - N/A   Overcast
1:15 AM 26.2 °F 19.6 °F 10.4 °F 51% 30.23 in 10.0 mi SE 5.8 mph - N/A   Overcast
1:35 AM 26.2 °F 20.7 °F 10.4 °F 51% 30.21 in 10.0 mi SE 4.6 mph - N/A   Overcast
1:55 AM 26.2 °F 19.6 °F 10.8 °F 52% 30.21 in 10.0 mi SE 5.8 mph - N/A   Overcast
2:15 AM 26.4 °F 22.4 °F 10.2 °F 51% 30.21 in 10.0 mi SE 3.5 mph - N/A   Overcast
2:35 AM 26.4 °F 22.4 °F 10.6 °F 51% 30.20 in 10.0 mi ESE 3.5 mph - N/A   Overcast
2:55 AM 26.2 °F - 11.1 °F 53% 30.20 in 10.0 mi Calm Calm - N/A   Overcast
3:15 AM 26.1 °F 18.4 °F 13.3 °F 59% 30.16 in 10.0 mi SE 6.9 mph - N/A   Overcast
3:35 AM 26.1 °F - 12.7 °F 57% 30.18 in 10.0 mi Calm Calm - N/A   Overcast
3:55 AM 26.2 °F - 11.5 °F 54% 30.18 in 10.0 mi Calm Calm - N/A   Overcast
4:15 AM 26.2 °F - 12.4 °F 56% 30.18 in 10.0 mi Calm Calm - N/A   Overcast
4:35 AM 26.2 °F - 14.7 °F 62% 30.16 in 10.0 mi Calm Calm - N/A   Overcast
4:55 AM 26.1 °F 21.9 °F 14.2 °F 61% 30.14 in 10.0 mi SE 3.5 mph - N/A   Overcast
5:15 AM 26.1 °F 21.9 °F 13.6 °F 59% 30.13 in 10.0 mi SE 3.5 mph - N/A   Overcast
5:35 AM 25.9 °F - 13.8 °F 60% 30.14 in 10.0 mi Calm Calm - N/A   Overcast
5:55 AM 26.1 °F - 13.6 °F 59% 30.13 in 10.0 mi Calm Calm - N/A   Overcast
6:15 AM 26.1 °F - 13.8 °F 60% 30.14 in 10.0 mi Calm Calm - N/A   Overcast
6:35 AM 26.1 °F - 13.8 °F 60% 30.14 in 10.0 mi Calm Calm - N/A   Overcast
6:55 AM 26.1 °F - 14.2 °F 61% 30.14 in 10.0 mi Calm Calm - N/A   Overcast
7:15 AM 26.6 °F - 14.0 °F 59% 30.14 in 10.0 mi Calm Calm - N/A   Overcast
7:35 AM 26.4 °F - 13.8 °F 59% 30.14 in 10.0 mi Calm Calm - N/A   Overcast
7:55 AM 26.6 °F 22.6 °F 13.6 °F 58% 30.14 in 10.0 mi SW 3.5 mph - N/A   Overcast
8:15 AM 26.8 °F 22.8 °F 14.2 °F 59% 30.15 in 10.0 mi SW 3.5 mph - N/A   Overcast
8:35 AM 27.3 °F 20.9 °F 14.4 °F 58% 30.16 in 10.0 mi WSW 5.8 mph - N/A   Overcast
8:55 AM 28.0 °F 21.7 °F 14.9 °F 58% 30.16 in 10.0 mi WSW 5.8 mph - N/A   Overcast
9:15 AM 28.4 °F 20.4 °F 14.5 °F 56% 30.16 in 10.0 mi WSW 8.1 mph - N/A   Overcast
9:35 AM 29.7 °F 20.7 °F 14.9 °F 54% 30.16 in 10.0 mi West 10.4 mph - N/A   Overcast
9:55 AM 29.8 °F 20.3 °F 15.6 °F 56% 30.16 in 10.0 mi West 11.5 mph 16.1 mph N/A   Overcast
10:15 AM 29.8 °F 21.5 °F 16.3 °F 57% 30.16 in 10.0 mi West 9.2 mph - N/A   Overcast
10:35 AM 30.4 °F 21.0 °F 17.2 °F 58% 30.16 in 10.0 mi West 11.5 mph - N/A   Mostly Cloudy
10:55 AM 31.1 °F 23.1 °F 16.9 °F 56% 30.15 in 10.0 mi West 9.2 mph 17.3 mph N/A   Scattered Clouds
11:15 AM 32.0 °F 24.2 °F 16.7 °F 53% 30.14 in 10.0 mi West 9.2 mph - N/A   Clear
11:35 AM 32.5 °F 23.7 °F 16.5 °F 52% 30.14 in 10.0 mi West 11.5 mph - N/A   Clear
11:55 AM 33.8 °F 24.8 °F 16.9 °F 50% 30.13 in 10.0 mi West 12.7 mph 17.3 mph N/A   Clear
12:15 PM 34.5 °F 25.7 °F 16.7 °F 48% 30.12 in 10.0 mi West 12.7 mph 16.1 mph N/A   Clear
12:35 PM 35.6 °F 27.5 °F 16.9 °F 47% 30.11 in 10.0 mi WSW 11.5 mph 16.1 mph N/A   Clear
12:55 PM 36.3 °F 28.0 °F 16.9 °F 45% 30.11 in 10.0 mi West 12.7 mph 17.3 mph N/A   Clear
1:15 PM 36.9 °F 29.1 °F 16.9 °F 44% 30.10 in 10.0 mi WSW 11.5 mph - N/A   Clear
1:35 PM 37.9 °F 29.6 °F 16.9 °F 43% 30.11 in 10.0 mi WSW 13.8 mph - N/A   Clear
1:55 PM 38.5 °F 30.3 °F 16.9 °F 42% 30.10 in 10.0 mi WSW 13.8 mph 19.6 mph N/A   Clear
2:15 PM 39.2 °F 31.2 °F 16.5 °F 40% 30.10 in 10.0 mi WSW 13.8 mph 18.4 mph N/A   Clear
2:35 PM 40.1 °F 32.0 °F 17.2 °F 40% 30.09 in 10.0 mi West 15.0 mph - N/A   Clear
2:55 PM 40.3 °F 33.0 °F 17.2 °F 39% 30.08 in 10.0 mi West 12.7 mph 16.1 mph N/A   Clear
3:15 PM 41.0 °F 33.9 °F 17.4 °F 39% 30.09 in 10.0 mi West 12.7 mph 17.3 mph N/A   Clear
3:35 PM 41.0 °F 33.5 °F 17.8 °F 39% 30.09 in 10.0 mi West 13.8 mph - N/A   Clear
3:55 PM 41.5 °F 35.0 °F 18.1 °F 39% 30.10 in 10.0 mi WSW 11.5 mph - N/A   Clear
4:15 PM 41.2 °F 34.5 °F 18.5 °F 40% 30.10 in 10.0 mi West 11.5 mph 18.4 mph N/A   Clear
4:35 PM 40.3 °F 34.4 °F 19.2 °F 43% 30.10 in 10.0 mi WSW 9.2 mph - N/A   Clear
4:55 PM 39.2 °F 32.5 °F 19.4 °F 45% 30.11 in 10.0 mi WSW 10.4 mph - N/A   Clear
5:15 PM 38.3 °F 32.5 °F 19.6 °F 47% 30.11 in 10.0 mi WSW 8.1 mph - N/A   Clear
5:35 PM 37.9 °F 32.1 °F 20.1 °F 49% 30.11 in 10.0 mi WSW 8.1 mph - N/A   Clear
5:55 PM 37.6 °F 31.0 °F 20.1 °F 49% 30.12 in 10.0 mi WSW 9.2 mph - N/A   Clear
6:15 PM 37.0 °F 30.4 °F 20.3 °F 51% 30.12 in 10.0 mi WSW 9.2 mph - N/A   Clear
6:35 PM 36.7 °F 30.5 °F 20.3 °F 52% 30.13 in 10.0 mi WSW 8.1 mph - N/A   Clear
6:55 PM 36.7 °F 29.4 °F 20.8 °F 53% 30.13 in 10.0 mi WSW 10.4 mph - N/A   Clear
7:15 PM 37.0 °F 31.0 °F 20.7 °F 52% 30.13 in 10.0 mi West 8.1 mph - N/A   Clear
7:35 PM 35.6 °F 29.9 °F 21.2 °F 56% 30.13 in 10.0 mi West 6.9 mph - N/A   Clear
7:55 PM 34.9 °F 29.0 °F 21.2 °F 57% 30.13 in 10.0 mi West 6.9 mph - N/A   Clear
8:15 PM 34.0 °F 28.0 °F 21.6 °F 60% 30.14 in 10.0 mi West 6.9 mph - N/A   Clear
8:35 PM 33.3 °F 27.9 °F 21.4 °F 62% 30.15 in 10.0 mi West 5.8 mph - N/A   Clear
8:55 PM 34.2 °F 29.0 °F 21.2 °F 59% 30.15 in 10.0 mi West 5.8 mph - N/A   Clear
9:15 PM 32.9 °F 29.8 °F 21.7 °F 64% 30.16 in 10.0 mi West 3.5 mph - N/A   Clear
9:35 PM 33.1 °F 30.0 °F 21.6 °F 63% 30.18 in 10.0 mi West 3.5 mph - N/A   Clear
9:55 PM 31.6 °F 26.0 °F 21.6 °F 66% 30.19 in 10.0 mi WNW 5.8 mph - N/A   Clear
10:15 PM 33.3 °F 27.9 °F 21.9 °F 63% 30.20 in 10.0 mi WNW 5.8 mph - N/A   Clear
10:35 PM 32.0 °F 26.4 °F 21.7 °F 66% 30.21 in 10.0 mi WNW 5.8 mph - N/A   Clear
10:55 PM 32.9 °F 28.5 °F 22.1 °F 65% 30.21 in 10.0 mi WNW 4.6 mph - N/A   Clear
11:15 PM 30.6 °F 27.1 °F 22.1 °F 71% 30.23 in 10.0 mi NNW 3.5 mph - N/A   Clear
11:35 PM 32.4 °F 24.6 °F 23.0 °F 68% 30.23 in 10.0 mi NW 9.2 mph - N/A   Clear
11:55 PM 31.3 °F 23.9 °F 23.0 °F 71% 30.23 in 10.0 mi NW 8.1 mph - N/A   Clear